Location: Kruen
(47.5000°N, 11.5000°E)
Time: 19:10:29
(UTC+02:00)

JY1SAT - Visible Passes

Search period start: 11 April 2026 00:00
Search period end: 21 April 2026 00:00
Orbit: 466 x 476 km, 97.4° (Epoch: 11 April)

Date Brightness Start Highest point End Pass type
(mag) Time Alt. Az. Time Alt. Az. Time Alt. Az.
11 Apr ? 21:59:58 51° ENE 21:59:59 51° ENE 22:03:25 10° N visible
11 Apr ? 23:34:03 12° W 23:34:03 12° W 23:34:55 10° WNW visible
12 Apr ? 21:31:04 23° E 21:31:35 24° ENE 21:34:29 10° NNE visible
12 Apr ? 23:05:08 24° W 23:05:08 24° W 23:07:39 10° NW visible
13 Apr ? 21:02:08 11° E 21:03:17 12° ENE 21:04:50 10° NE visible
13 Apr ? 22:36:12 54° W 22:36:12 54° W 22:39:29 10° NNW visible
14 Apr ? 22:07:15 62° E 22:07:26 63° ENE 22:10:55 10° N visible
15 Apr ? 21:38:16 26° E 21:38:56 28° ENE 21:42:00 10° N visible
15 Apr ? 23:12:20 20° W 23:12:20 20° W 23:14:50 10° NW visible
16 Apr ? 21:09:16 13° E 21:10:31 15° ENE 21:12:32 10° NNE visible
16 Apr ? 22:43:20 44° W 22:43:20 44° W 22:46:44 10° NNW visible
17 Apr ? 22:14:18 68° SE 22:14:39 78° ENE 22:18:10 10° N visible
18 Apr ? 21:45:15 30° E 21:46:04 34° ENE 21:49:16 10° N visible
18 Apr ? 23:19:19 17° W 23:19:20 17° W 23:21:45 10° NW visible
19 Apr ? 21:16:11 14° E 21:17:33 17° ENE 21:19:54 10° NNE visible
19 Apr ? 22:50:15 36° WSW 22:50:28 36° W 22:53:44 10° NNW visible
20 Apr ? 22:21:09 62° S 22:21:40 86° WSW 22:25:12 10° NNW visible
